Regional Weather Roundup
Issued by NWS

Home | Current Version | Previous Version | Graphics & Text | Print | Product List | Glossary On
Versions: 1 2 3 4 5 6 7 8 9 10 11 12 13 14 15 16 17 18 19 20 21 22 23 24 25 26 27 28 29 30 31 32 33 34 35 36 37 38 39 40 41 42 43 44 45 46 47 48 49 50
639
ASUS43 KIND 080359
RWRIN

WEATHER ROUNDUP FOR INDIANA
NATIONAL WEATHER SERVICE INDIANAPOLIS IN
1100 PM EST SUN FEB 07 2016

NOTE: "FAIR" INDICATES FEW OR NO CLOUDS BELOW 12,000 FEET WITH NO
SIGNIFICANT WEATHER AND/OR OBSTRUCTIONS TO VISIBILITY.

* - STATION DOES NOT REPORT WEATHER SUCH AS PRECIPITATION OR FOG.

+ - STATION NOT QUALITY CONTROLLED BY THE NATIONAL WEATHER SERVICE.
    USE DATA WITH CAUTION...ESPECIALLY DEWPOINT AND RELATIVE
    HUMIDITY OBSERVATIONS.

INZ001>003-010>013-019-020-080500-
NORTHWEST INDIANA

CITY           SKY/WX    TMP DP  RH WIND       PRES   REMARKS
GARY /AIRPORT/ PTCLDY    39  25  56 W14       29.75F
RENSSELAER +   PTCLDY    34  30  86 SW6       29.76F WCI  29

$$

LMZ046-743>745-080500-
SOUTHERN LAKE MICHIGAN

STATION/POSITION TIME  TEMP    WIND        PRES    WAVE
                       AIR SEA DIR/SP/G            HT
                 (UTC) (F)     (DEG/KT/KT) (MB)    (FT)
BURNS HARBOR     0300   38     260/ 15/ 19 1008.1F
MICHIGAN CITY    0300   36     230/ 17/ 18   N/A

$$

INZ004-005-014>016-021>024-080500-
NORTH CENTRAL INDIANA

CITY           SKY/WX    TMP DP  RH WIND       PRES   REMARKS
GOSHEN         PTCLDY    34  30  85 SW6       29.72F WCI  29
PERU/GRISSOM   MOCLDY    35  32  88 SW9       29.74F WCI  28
SOUTH BEND     CLEAR     31  28  89 W7        29.73F WCI  24

$$

INZ006>009-017-018-025>027-080500-
NORTHEAST INDIANA

CITY           SKY/WX    TMP DP  RH WIND       PRES   REMARKS
ANGOLA *+      CLEAR     37  32  81 W5        29.71F
FORT WAYNE     CLOUDY    36  31  82 SW9       29.75F

$$

INZ028-029-035-036-043>045-051>053-080500-
WEST CENTRAL INDIANA

CITY           SKY/WX    TMP DP  RH WIND       PRES   REMARKS
GREENCASTLE +  PTCLDY    37  28  70 W3        29.79F
LAFAYETTE      MOCLDY    38  31  76 W9        29.77F
TERRE HAUTE    CLOUDY    42  31  64 W8        29.80F

$$

INZ030>032-037>040-046>048-054>057-064-065-080500-
CENTRAL INDIANA

CITY           SKY/WX    TMP DP  RH WIND       PRES   REMARKS
GREENWOOD *+   MOCLDY    41  34  75 W8        29.80
INDIANAPOLIS   NOT AVBL
-EAGLE CREEK   PTCLDY    39  31  72 VRB5      29.78F
KOKOMO *+        N/A     36  28  75 W12       29.76F
MT COMFORT *+  CLOUDY    37  32  81 W7        29.79S
SHELBYVILLE    CLOUDY    43  32  65 W8        29.79S

$$

INZ033-034-041-042-049-050-058-059-080500-
EAST CENTRAL INDIANA

CITY           SKY/WX    TMP DP  RH WIND       PRES   REMARKS
MUNCIE         CLOUDY    42  32  67 W9        29.76F

$$

INZ060-061-067>069-081>083-085>088-080500-
SOUTHWEST INDIANA

CITY           SKY/WX    TMP DP  RH WIND       PRES   REMARKS
EVANSVILLE     CLOUDY    49  30  48 NW7       29.86S
HUNTINGBURG *+ CLOUDY    46  30  53 NW7       29.85S

$$

INZ062-063-066-070>080-084-089>092-080500-
SOUTH CENTRAL AND SOUTHEAST INDIANA

CITY           SKY/WX    TMP DP  RH WIND       PRES   REMARKS
BLOOMINGTON    MOCLDY    43  31  62 W8        29.80F
MADISON *+     CLOUDY    45  25  45 S8        29.81F
SEYMOUR +      CLOUDY    46  30  53 W10       29.79F

$$





USA.gov is the U.S. government's official web portal to all federal, state and local government web resources and services.